Flag for USA

Past Weather in Geneva, New York, USA — Yesterday and Last 2 Weeks

Now
57 °F

Passing clouds.


Feels Like: 57 °F
Forecast: 61 / 46 °F
Wind: 5 mph from Southwest

Location: Penn Yan
Current Time: Oct 1, 2020 at 8:02:55 pm
Latest Report: Oct 1, 2020 at 6:53 pm
Visibility: 10 mi
Pressure29.93 "Hg
Humidity: 55%
Dew Point: 41 °F
Location of GenevaLocation

Past Weather in Geneva — Graph

°F

Geneva Temperature Yesterday

Maximum temperature yesterday: 64 °F (at 3:53 pm)
Minimum temperature yesterday: 52 °F (at 5:17 am)
Average temperature yesterday: 57 °F

High & Low Weather Summary for the Past Weeks

 TemperatureHumidityPressure
High82 °F (Sep 25, 3:53 pm)97% (Sep 21, 3:53 am)30.63 "Hg (Sep 21, 3:53 am)
Low31 °F (Sep 19, 6:53 am)28% (Sep 21, 2:53 pm)29.57 "Hg (Sep 30, 5:53 am)
Average60 °F68%30.04 "Hg
* Reported Sep 16 6:53 pm — Oct 1 6:53 pm, Geneva. Weather by CustomWeather, © 2020

Note: Actual official high and low records may vary slightly from our data, if they occured in-between our weather recording intervals... More about our weather records

Geneva Weather History for the Previous 24 Hours

Scroll right to see more
 ConditionsComfort  
Time TempWeatherWind HumidityBarometerVisibility
6:53 pm
Thu, Oct 1
57 °FPassing clouds.5 mph55%29.93 "Hg10 mi
5:53 pm59 °FPartly sunny.5 mph56%29.92 "Hg10 mi
4:53 pm61 °FBroken clouds.9 mph50%29.91 "Hg10 mi
3:53 pm60 °FPartly sunny.9 mph58%29.91 "Hg10 mi
2:53 pm60 °FMostly cloudy.8 mph62%29.90 "Hg10 mi
1:53 pm58 °FMore clouds than sun.No wind75%29.90 "Hg10 mi
12:53 pm60 °FOvercast.8 mph56%29.90 "Hg10 mi
11:53 am62 °FScattered clouds.22 mph54%29.87 "Hg10 mi
10:53 am59 °FSunny.15 mph60%29.88 "Hg10 mi
9:53 am59 °FScattered clouds.12 mph62%29.87 "Hg10 mi
8:53 am56 °FOvercast.12 mph72%29.86 "Hg10 mi
7:53 am55 °FPartly sunny.10 mph74%29.84 "Hg10 mi
6:53 am54 °FPassing clouds.9 mph80%29.81 "Hg10 mi
5:53 am54 °FLight rain. Mostly cloudy.12 mph80%29.80 "Hg10 mi
4:53 am56 °FOvercast.15 mph72%29.78 "Hg10 mi
3:53 am55 °FClear.10 mph74%29.76 "Hg10 mi
2:53 am57 °FClear.8 mph67%29.75 "Hg10 mi
1:53 am59 °FPassing clouds.12 mph60%29.74 "Hg10 mi
12:53 am59 °FPassing clouds.12 mph62%29.73 "Hg10 mi
11:53 pm
Wed, Sep 30
60 °FPassing clouds.12 mph58%29.72 "Hg10 mi
10:53 pm61 °FOvercast.16 mph56%29.70 "Hg10 mi
9:53 pm61 °FPassing clouds.20 mph54%29.70 "Hg10 mi
8:53 pm60 °FClear.9 mph56%29.67 "Hg10 mi
Weather by CustomWeather, © 2020

See weather overview